Preview of NWS' New Version of Forecast
This preview is not operational and should not be used for support decisions.

Regional Weather Roundup (RWR)

Issued by National Weather Service (NWS)

                            
000
ASCA42 TJSJ 191510
RWRPR 
PUERTO RICO/U.S. VIRGIN ISLANDS HOURLY WEATHER ROUNDUP
NATIONAL WEATHER SERVICE SAN JUAN PR
1100 AM AST WED JUN 19 2019

PRZ001>002-007>008-010-191600-
PUERTO RICO
  
CITY           SKY/WX    TMP DP  RH WIND       PRES   REMARKS
SAN JUAN LMM   MOSUNNY   88  75  66 NE20      30.08F HX  97           
AGUADILLA      MOSUNNY   84  77  79 E15G22    30.10S HX  94           
CEIBA          CLOUDY    90  75  62 E12G20    30.11F HX 100           
$$

VIZ001>002-191600-
U.S. VIRGIN ISLANDS
  
CITY           SKY/WX    TMP DP  RH WIND       PRES   REMARKS
CHARLOTTE AMA  MOSUNNY   88  73  62 E16       30.09S HX  96           
CHRISTIANSTED  MOSUNNY   90  73  58 E22       30.09R HX  98           
$$

HOURLY WEATHER ROUNDUP FOR THE NEWS MEDIA
  
CITY           SKY/WX    TMP DP  RH WIND       PRES   REMARKS
ORLANDO        FAIR      83  72  69 S8        30.02S                  
NEW YORK       CLOUDY    68  67  96 S9        29.89S                  
NEWARK         CLOUDY    68  65  90 VRB6      29.88R                  
CHICAGO        CLOUDY    68  59  73 NE10      29.78F                  
HARTFORD       CLOUDY    68  62  81 CALM      29.88S                  
BOSTON         CLOUDY    65  60  84 NE6       29.89S FOG              
DALLAS         PTSUNNY   78  69  73 SE9       29.84R                  
PHILADELPHIA   CLOUDY    72  69  90 SE5       29.84                   
LOS ANGELES    CLOUDY    66  57  72 W3        29.98R                  
WASHINGTON DC  PTSUNNY   77  68  73 VRB3      29.83F